Location: Buckhorn Peak
(37.6641°N, 120.1241°W)
Time: 00:06:45
(UTC+00:00)

Vanguard 1 Rocket - Pass Details

Date: 14 November 2024
Orbit: 650 x 4218 km, 34.3° (Epoch: 06 December)

Event Time Altitude Azimuth Distance (km) Brightness Sun altitude
Rises 03:13:31 0° 278° (W) 5,246 12.5 -28.4°
Reaches altitude 10° 03:20:09 10° 252° (WSW) 3,392 11.2 -29.7°
Maximum altitude 03:22:55 12° 231° (SW) 2,897 10.5 -30.2°
Drops below altitude 10° 03:25:16 10° 210° (SSW) 2,769 10.2 -30.7°
Enters shadow 03:28:47 - 181° (S) 3,183 10.2 -31.4°
